{"data":{"norad_id":62309,"epoch":"2026-09-21T16:22:01.751808Z","epoch_age_seconds":75481,"freshness":"FRESH","line1":"1 62309U 24239J   26264.68196472  .00079245  00000+0  15124-2 0  9994","line2":"2 62309  53.1540 343.4605 0003569 329.0343  31.0455 15.47465645 99678","mean_motion":15.47465645,"eccentricity":0.0003569,"inclination_deg":53.154,"raan_deg":343.4605,"arg_perigee_deg":329.0343,"mean_anomaly_deg":31.0455,"bstar":0.0015124,"rev_number":9967,"period_min":93.055377652665,"perigee_km":421.71514988375,"apogee_km":426.57061726464,"semimajor_km":6802.2798835742,"source":"CELESTRAK","updated_at":"2026-09-22T09:00:49.572258Z"}}